TimeEDT,TemperatureF,Dew PointF,Humidity,Sea Level PressureIn,VisibilityMPH,Wind Direction,Wind SpeedMPH,Gust SpeedMPH,PrecipitationIn,Events,Conditions,WindDirDegrees,DateUTC
12:52 AM,62.1,61.0,96,30.01,10.0,WSW,3.5,-,N/A,,Clear,240,2013-08-29 04:52:00
1:48 AM,57.2,57.2,100,30.02,2.0,Calm,Calm,-,N/A,,Scattered Clouds,0,2013-08-29 05:48:00
1:50 AM,57.2,57.2,100,30.02,1.2,Calm,Calm,-,N/A,,Scattered Clouds,0,2013-08-29 05:50:00
1:52 AM,57.0,57.0,100,30.01,1.0,Calm,Calm,-,N/A,,Mist,0,2013-08-29 05:52:00
2:11 AM,57.2,55.4,94,30.02,0.5,Calm,Calm,-,N/A,Fog,Fog,0,2013-08-29 06:11:00
2:18 AM,57.2,55.4,94,30.02,0.2,Calm,Calm,-,N/A,Fog,Fog,0,2013-08-29 06:18:00
2:49 AM,59.0,57.2,94,30.02,0.2,Calm,Calm,-,N/A,Fog,Fog,0,2013-08-29 06:49:00
2:52 AM,57.9,57.9,100,30.01,0.2,Calm,Calm,-,N/A,Fog,Fog,0,2013-08-29 06:52:00
3:06 AM,57.2,57.2,100,30.03,0.2,Calm,Calm,-,N/A,Fog,Fog,0,2013-08-29 07:06:00
3:52 AM,59.0,59.0,100,30.04,0.2,Calm,Calm,-,N/A,Fog,Fog,0,2013-08-29 07:52:00
4:07 AM,59.0,59.0,100,30.04,0.2,Calm,Calm,-,N/A,Fog,Fog,0,2013-08-29 08:07:00
4:39 AM,60.8,60.8,100,30.06,0.2,Calm,Calm,-,N/A,Fog,Fog,0,2013-08-29 08:39:00
4:52 AM,60.1,59.0,96,30.05,0.5,Calm,Calm,-,N/A,Fog,Fog,0,2013-08-29 08:52:00
5:23 AM,59.0,59.0,100,30.07,1.5,Calm,Calm,-,N/A,,Overcast,0,2013-08-29 09:23:00
5:26 AM,59.0,59.0,100,30.07,3.0,Calm,Calm,-,N/A,,Overcast,0,2013-08-29 09:26:00
5:52 AM,60.1,59.0,96,30.07,8.0,Calm,Calm,-,N/A,,Overcast,0,2013-08-29 09:52:00
6:40 AM,60.8,59.0,94,30.09,2.0,Calm,Calm,-,N/A,,Overcast,0,2013-08-29 10:40:00
6:44 AM,60.8,60.8,100,30.09,1.2,Calm,Calm,-,N/A,,Overcast,0,2013-08-29 10:44:00
6:52 AM,60.1,60.1,100,30.09,0.5,Calm,Calm,-,N/A,Fog,Fog,0,2013-08-29 10:52:00
7:40 AM,60.8,60.8,100,30.10,1.5,Calm,Calm,-,N/A,,Overcast,0,2013-08-29 11:40:00
7:48 AM,60.8,60.8,100,30.10,2.5,Calm,Calm,-,N/A,,Overcast,0,2013-08-29 11:48:00
7:52 AM,61.0,61.0,100,30.10,3.0,Calm,Calm,-,N/A,,Overcast,0,2013-08-29 11:52:00
8:37 AM,64.4,60.8,88,30.10,10.0,Calm,Calm,-,N/A,,Overcast,0,2013-08-29 12:37:00
8:52 AM,64.0,62.1,93,30.10,10.0,Calm,Calm,-,N/A,,Overcast,0,2013-08-29 12:52:00
9:16 AM,64.4,62.6,94,30.11,10.0,Calm,Calm,-,N/A,,Overcast,0,2013-08-29 13:16:00
9:48 AM,66.2,62.6,88,30.11,10.0,Calm,Calm,-,N/A,,Overcast,0,2013-08-29 13:48:00
9:52 AM,66.0,63.0,90,30.11,10.0,Calm,Calm,-,N/A,,Overcast,0,2013-08-29 13:52:00
10:52 AM,66.9,60.1,79,30.11,10.0,SSE,5.8,-,N/A,,Overcast,150,2013-08-29 14:52:00
11:52 AM,68.0,59.0,73,30.11,10.0,South,9.2,-,N/A,,Overcast,190,2013-08-29 15:52:00
12:52 PM,70.0,60.1,71,30.10,10.0,Variable,3.5,-,N/A,,Overcast,0,2013-08-29 16:52:00
1:52 PM,69.1,60.1,73,30.09,10.0,NNW,5.8,-,N/A,,Overcast,340,2013-08-29 17:52:00
2:52 PM,69.1,59.0,70,30.08,10.0,NNW,5.8,-,N/A,,Overcast,340,2013-08-29 18:52:00
3:18 PM,69.8,60.8,73,30.07,10.0,Calm,Calm,-,N/A,,Mostly Cloudy,0,2013-08-29 19:18:00
3:52 PM,71.1,60.1,68,30.06,10.0,Calm,Calm,-,N/A,,Partly Cloudy,0,2013-08-29 19:52:00
4:38 PM,71.6,60.8,69,30.06,10.0,Calm,Calm,-,N/A,,Overcast,0,2013-08-29 20:38:00
4:52 PM,73.0,61.0,66,30.05,10.0,Calm,Calm,-,N/A,,Overcast,0,2013-08-29 20:52:00
5:52 PM,69.1,61.0,75,30.05,10.0,SSE,4.6,-,N/A,,Overcast,160,2013-08-29 21:52:00
6:52 PM,64.9,60.1,84,30.06,10.0,ESE,4.6,-,N/A,,Overcast,120,2013-08-29 22:52:00
7:52 PM,64.0,59.0,84,30.07,10.0,SW,4.6,-,N/A,,Overcast,220,2013-08-29 23:52:00
8:52 PM,63.0,59.0,87,30.07,10.0,SE,3.5,-,N/A,,Overcast,130,2013-08-30 00:52:00
9:52 PM,63.0,59.0,87,30.06,10.0,Calm,Calm,-,N/A,,Overcast,0,2013-08-30 01:52:00
10:52 PM,62.1,60.1,93,30.05,10.0,Calm,Calm,-,N/A,,Overcast,0,2013-08-30 02:52:00
11:52 PM,63.0,60.1,90,30.04,10.0,Calm,Calm,-,N/A,,Overcast,0,2013-08-30 03:52:00